User: anonymous   Login
Location: Erp
(42.9417°N, 1.2009°E)
Time: 10:31:19
(UTC+00:00)
Language:

NOAA 6 - Orbit

View from above orbital plane
View from above orbital plane
View from above satellite
View from above satellite

Ground track
Ground track

The orbit is defined by the following mean orbital elements,

1 11416U          26064.09041564 +.00000000 +00000-0 +15861-3 0 00007
2 11416  98.5756  94.2718 0009482 200.8263 159.2537 14.35429614    01
Epoch (UTC): 05 March 2026 02:10:11
Eccentricity: 0.0009482
inclination: 98.5756°
perigee height: 767 km
apogee height: 780 km
right ascension of ascending node: 94.2718°
argument of perigee: 200.8263°
revolutions per day: 14.35429614
mean anomaly at epoch: 159.2537°

The dashed part of the orbit path shows where the satellite is in the earth's shadow,  

DLR